[[{"header":{"parameterUnit":"m.s-1","parameterCategory":1,"la1":30.2991,"la2":30.254,"lo1":-89.0895,"lo2":-89.0444,"dy":0.0017,"dx":0.0017,"nx":28,"ny":28,"refTime":"2025-06-20T03:00:00:Z","depth":0,"parameterNumber":2,"parameterNumberName":"U-component_of_WINDS"},"data":[0,0,0,0,0,0,0,0,0,0,0,0,0,0,0,0,0,0,0,0,0,0,0,0,0,0,0,0,0,0,0,0,0,0,0,0,0,0,0,0,0,0,0,0,0,0,0,0,0,0,0,0,0,0,0,0,0,0,-0.3366,-0.3367,0,-0.3399,-0.34,-0.34,-0.3391,-0.3391,-0.339,-0.3389,-0.3421,-0.3423,-0.3424,0,0,0,0,0,0,0,0,0,0,0,0,0,-0.3295,-0.3296,-0.3366,-0.3367,-0.3367,-0.3399,-0.34,-0.34,-0.3391,-0.339,-0.339,-0.3389,-0.3421,-0.3423,-0.3424,0,0,0,0,0,0,0,0,0,0,0,0,0,-0.3326,-0.3296,-0.3366,-0.3367,-0.3367,-0.3399,-0.34,-0.34,-0.3391,-0.339,-0.3389,-0.3389,-0.342,-0.3423,-0.3425,-0.3458,0,0,-0.3431,-0.3432,0,0,0,0,0,0,0,0,-0.3325,-0.3329,-0.3366,-0.3367,-0.3367,-0.339,-0.3386,-0.342,-0.3392,-0.3382,-0.3389,-0.3388,-0.3412,-0.3415,-0.3423,-0.346,-0.3461,-0.3432,-0.3433,-0.3434,-0.3435,0,0,0,0,0,0,0,-0.3322,-0.3328,-0.3379,-0.3367,-0.3367,-0.3365,-0.3368,-0.3393,-0.3402,-0.3383,-0.3382,-0.3386,-0.3412,-0.3421,-0.3424,-0.3461,-0.3432,-0.3434,-0.3435,-0.3436,-0.3528,-0.3529,0,0,0,0,0,0,-0.332,-0.3326,-0.3378,-0.338,-0.3343,-0.3367,-0.3371,-0.3384,-0.3402,-0.3404,-0.3387,-0.3386,-0.3418,-0.3421,-0.3425,-0.3466,-0.3434,-0.3436,-0.3437,-0.3527,-0.3529,-0.353,0,0,0,0,0,0,-0.3319,-0.3325,-0.3377,-0.3353,-0.3359,-0.3369,-0.3384,-0.3385,-0.3394,-0.3405,-0.3407,-0.3395,-0.3417,-0.3422,-0.345,-0.3467,-0.3437,-0.3439,-0.3526,-0.3528,-0.3529,-0.3548,0,0,0,0,0,0,-0.3317,-0.3324,-0.3337,-0.3353,-0.3361,-0.3402,-0.3385,-0.3386,-0.3398,-0.3397,-0.3413,-0.3414,-0.3416,-0.3447,-0.3452,-0.3469,-0.3441,-0.3524,-0.3527,-0.3529,-0.3546,-0.355,-0.3554,0,0,0,0,0,-0.3314,-0.3341,-0.3338,-0.3344,-0.3377,-0.3403,-0.3407,-0.341,-0.3399,-0.3412,-0.342,-0.3414,-0.3464,-0.345,-0.3456,-0.3474,-0.3523,-0.3526,-0.3529,-0.3544,-0.3549,-0.3554,0,0,0,0,0,0,-0.3325,-0.3343,-0.334,-0.3373,-0.3387,-0.3402,-0.3418,-0.3415,-0.3432,-0.343,-0.3432,-0.3435,-0.3465,-0.3472,-0.3456,-0.3508,-0.3492,-0.3496,-0.3502,-0.3507,-0.3511,-0.3509,-0.3443,0,0,0,0,0,-0.3332,-0.3352,-0.3366,-0.3393,-0.34,-0.3408,-0.3419,-0.342,-0.3435,-0.344,-0.345,-0.3464,-0.3483,-0.3495,-0.3513,-0.3547,-0.3551,-0.3562,-0.3566,-0.3569,-0.3573,-0.3592,-0.3598,-0.3538,-0.3538,-0.3538,0,0,-0.3345,-0.3357,-0.3369,-0.3396,-0.3407,-0.3427,-0.3413,-0.3435,-0.3451,-0.3444,-0.3472,-0.3479,-0.3495,-0.3526,-0.3541,-0.3533,-0.359,-0.3572,-0.3575,-0.3577,-0.3595,-0.3601,-0.3606,-0.354,-0.354,-0.3539,0,0,-0.338,-0.3391,-0.3415,-0.3427,-0.3444,-0.3449,-0.3455,-0.3471,-0.3476,-0.3504,-0.35,-0.3518,-0.355,-0.3562,-0.3572,-0.3613,-0.3608,-0.3618,-0.3639,-0.3658,-0.3662,-0.3667,-0.3682,-0.3687,-0.3622,-0.3622,-0.3622,0,-0.3394,-0.3426,-0.3428,-0.3451,-0.3463,-0.3459,-0.3484,-0.3495,-0.3517,-0.3525,-0.3516,-0.3558,-0.3568,-0.3603,-0.3613,-0.3621,-0.3628,-0.3617,-0.3662,-0.3666,-0.367,-0.3684,-0.369,-0.3623,-0.3623,-0.3623,-0.3623,0,-0.3443,-0.3465,-0.3482,-0.3505,-0.3519,-0.3542,-0.3549,-0.3562,-0.3562,-0.3568,-0.3598,-0.361,-0.3631,-0.3639,-0.3638,-0.3674,-0.3669,-0.3661,-0.3646,-0.3677,-0.369,-0.3696,-0.3625,-0.3624,-0.3624,-0.3624,0,0,-0.3486,-0.351,-0.3516,-0.3527,-0.3546,-0.3563,-0.3586,-0.3608,-0.362,-0.3635,-0.3655,-0.3684,-0.3677,-0.3688,-0.3689,-0.3706,-0.3738,-0.3696,-0.3696,-0.3704,-0.3779,-0.3786,-0.3792,-0.3735,-0.3736,-0.3737,-0.3778,0,-0.3523,-0.3566,-0.3569,-0.3607,-0.3628,-0.3624,-0.3645,-0.3659,-0.3665,-0.3684,-0.369,-0.3711,-0.37,-0.3707,-0.3723,-0.3731,-0.3753,-0.3728,-0.3754,-0.3755,-0.3751,-0.3799,-0.3806,-0.3844,-0.3784,-0.3784,-0.3785,0,-0.3572,-0.359,-0.3631,-0.3648,-0.3657,-0.3675,-0.3696,-0.3713,-0.3729,-0.3732,-0.3746,-0.3745,-0.3769,-0.3753,-0.3787,-0.377,-0.3781,-0.3786,-0.3788,-0.3791,-0.3773,-0.3804,-0.3856,-0.3862,-0.3793,-0.3793,-0.3792,0,-0.3601,-0.3635,-0.3664,-0.3673,-0.3693,-0.3707,-0.3715,-0.373,-0.3743,-0.3761,-0.3769,-0.3789,-0.38,-0.3815,-0.382,-0.3807,-0.3854,-0.3838,-0.3858,-0.3858,-0.3869,-0.3868,-0.3924,-0.3875,-0.3875,-0.3874,-0.3874,0,-0.3643,-0.3668,-0.3677,-0.3695,-0.3723,-0.3727,-0.3755,-0.3763,-0.3776,-0.3796,-0.3793,-0.3812,-0.3816,-0.3835,-0.3839,-0.3867,-0.3872,-0.3876,-0.3876,-0.3876,-0.3876,-0.3884,-0.3882,-0.3876,-0.3876,-0.3875,-0.3875,0,-0.368,-0.3687,-0.3718,-0.3735,-0.374,-0.376,-0.3775,-0.3792,-0.3798,-0.3823,-0.3829,-0.3838,-0.3861,-0.3867,-0.3893,-0.3896,-0.393,-0.3928,-0.3925,-0.3925,-0.3945,-0.3944,-0.4009,-0.4018,-0.3962,-0.3962,-0.3963,0,-0.3706,-0.3726,-0.3745,-0.3758,-0.3768,-0.3789,-0.3802,-0.3807,-0.3821,-0.3841,-0.3856,-0.3878,-0.3896,-0.3932,-0.3942,-0.3962,-0.3961,-0.3983,-0.3964,-0.3964,-0.3963,-0.3962,-0.3964,-0.3986,-0.3987,-0.3987,-0.3988,0,-0.3753,-0.3756,-0.3776,-0.3797,-0.3813,-0.383,-0.3846,-0.3857,-0.3863,-0.3879,-0.3902,-0.3916,-0.3944,-0.3967,-0.3988,-0.3997,-0.3994,-0.3993,-0.3999,-0.4,-0.3998,-0.4,-0.3935,-0.3992,-0.3992,-0.3991,-0.3991,-0.3991,-0.3787,-0.3804,-0.3821,-0.3843,-0.3856,-0.3871,-0.3888,-0.3897,-0.3917,-0.394,-0.3941,-0.3967,-0.3982,-0.401,-0.4021,-0.4041,-0.4034,-0.4043,-0.4045,-0.4047,-0.405,-0.3994,-0.4045,-0.4044,-0.4044,-0.4044,-0.4044,0,-0.3835,-0.3845,-0.3865,-0.3888,-0.3906,-0.3902,-0.3919,-0.3934,-0.3957,-0.3972,-0.399,-0.4017,-0.4039,-0.4051,-0.4073,-0.4087,-0.4086,-0.4092,-0.4092,-0.4094,-0.4054,-0.4047,-0.4093,-0.4093,-0.4093,-0.4093,-0.4093,-0.4092,-0.3862,-0.3892,-0.3896,-0.3932,-0.3943,-0.3968,-0.3979,-0.3993,-0.4005,-0.4036,-0.4054,-0.4062,-0.4075,-0.4098,-0.4118,-0.4121,-0.413,-0.4137,-0.4139,-0.4102,-0.4097,-0.4092,-0.4086,-0.4139,-0.4139,-0.4178,-0.4178,-0.4179]},{"header":{"parameterUnit":"m.s-1","parameterCategory":1,"la1":30.2991,"la2":30.254,"lo1":-89.0895,"lo2":-89.0444,"dy":0.0017,"dx":0.0017,"nx":28,"ny":28,"refTime":"2025-06-20T03:00:00:Z","depth":0,"parameterNumber":3,"parameterNumberName":"V-component_of_WINDS"},"data":[0,0,0,0,0,0,0,0,0,0,0,0,0,0,0,0,0,0,0,0,0,0,0,0,0,0,0,0,0,0,0,0,0,0,0,0,0,0,0,0,0,0,0,0,0,0,0,0,0,0,0,0,0,0,0,0,0,0,3.9715,3.9715,0,3.9699,3.9698,3.9698,3.9696,3.9697,3.9697,3.9697,3.9676,3.9676,3.9675,0,0,0,0,0,0,0,0,0,0,0,0,0,3.9743,3.9742,3.9715,3.9715,3.9715,3.9699,3.9698,3.9698,3.9696,3.9697,3.9697,3.9697,3.9676,3.9676,3.9675,0,0,0,0,0,0,0,0,0,0,0,0,0,3.9729,3.9742,3.9715,3.9712,3.9712,3.9699,3.9698,3.9698,3.9696,3.9697,3.9697,3.9697,3.9677,3.9676,3.9675,3.9663,0,0,3.9671,3.9671,0,0,0,0,0,0,0,0,3.973,3.9728,3.9713,3.9712,3.9712,3.97,3.9701,3.9686,3.9696,3.9702,3.9697,3.9697,3.9684,3.9682,3.9678,3.9662,3.9661,3.9671,3.9671,3.967,3.967,0,0,0,0,0,0,0,3.9731,3.9729,3.9709,3.9713,3.9712,3.9711,3.9709,3.9698,3.9691,3.9702,3.9701,3.97,3.9683,3.9679,3.9678,3.9661,3.9671,3.967,3.967,3.9669,3.9632,3.9632,0,0,0,0,0,0,3.9733,3.9729,3.9709,3.9708,3.9722,3.971,3.9708,3.9703,3.9692,3.969,3.9699,3.97,3.9681,3.9679,3.9677,3.9662,3.967,3.9669,3.9669,3.9633,3.9632,3.9632,0,0,0,0,0,0,3.9733,3.9731,3.971,3.9719,3.9716,3.9709,3.9704,3.9703,3.9699,3.969,3.9689,3.9697,3.9681,3.9678,3.9666,3.9661,3.9669,3.9668,3.9633,3.9633,3.9632,3.9631,0,0,0,0,0,0,3.9734,3.9731,3.9727,3.9719,3.9716,3.9701,3.9704,3.9702,3.9697,3.9697,3.9687,3.9685,3.9681,3.9668,3.9665,3.9659,3.9667,3.9634,3.9633,3.9632,3.9631,3.9631,3.963,0,0,0,0,0,3.9735,3.9727,3.9727,3.9725,3.9711,3.97,3.9698,3.9695,3.9697,3.9692,3.9687,3.9686,3.9662,3.9667,3.9664,3.9657,3.9634,3.9633,3.9632,3.9632,3.9631,3.963,0,0,0,0,0,0,3.9734,3.9726,3.9726,3.9715,3.9708,3.97,3.9694,3.9694,3.9685,3.9686,3.968,3.9678,3.9666,3.966,3.9666,3.9645,3.9648,3.9647,3.9649,3.9648,3.9647,3.9648,3.9666,0,0,0,0,0,3.9733,3.9726,3.9719,3.971,3.9707,3.9701,3.9696,3.9694,3.9687,3.9683,3.9677,3.9669,3.9659,3.9653,3.9644,3.9631,3.9628,3.9625,3.9624,3.9624,3.9622,3.9614,3.9612,3.9629,3.9629,3.9629,0,0,3.9729,3.9724,3.972,3.9709,3.9704,3.9696,3.9699,3.969,3.9684,3.9682,3.967,3.9665,3.9655,3.9642,3.9636,3.9638,3.9617,3.9623,3.9622,3.9621,3.9613,3.9611,3.961,3.9629,3.9629,3.9629,0,0,3.9719,3.9715,3.9707,3.9702,3.9694,3.9691,3.9689,3.968,3.9677,3.9666,3.9664,3.9656,3.964,3.9633,3.9627,3.9615,3.9613,3.9612,3.9607,3.9599,3.9598,3.9596,3.9591,3.9589,3.9611,3.9611,3.9611,0,3.9716,3.9705,3.9703,3.9695,3.9689,3.9689,3.968,3.9674,3.9664,3.966,3.9662,3.9642,3.9635,3.962,3.9617,3.9613,3.961,3.9613,3.9598,3.9597,3.9596,3.9591,3.9589,3.9611,3.9611,3.9611,3.9611,0,3.9701,3.9693,3.9688,3.9678,3.9673,3.9664,3.9659,3.9654,3.9652,3.9648,3.9635,3.9628,3.9617,3.9613,3.9611,3.9598,3.9599,3.96,3.9603,3.9594,3.9589,3.9587,3.9611,3.9611,3.9611,3.9611,0,0,3.9689,3.9679,3.9677,3.9673,3.9664,3.9658,3.9649,3.9639,3.9634,3.9627,3.9618,3.9605,3.9606,3.9599,3.9596,3.9589,3.9579,3.9591,3.9591,3.9588,3.9563,3.9562,3.9559,3.9578,3.9578,3.9578,3.9563,0,3.9678,3.9663,3.966,3.9647,3.9639,3.9638,3.963,3.9623,3.9619,3.9611,3.9606,3.9597,3.9599,3.9595,3.9588,3.9582,3.9574,3.9583,3.9569,3.9568,3.9571,3.9557,3.9556,3.9543,3.9561,3.9561,3.9561,0,3.9662,3.9655,3.9641,3.9634,3.963,3.9623,3.9614,3.9607,3.9599,3.9596,3.9589,3.9587,3.9577,3.9581,3.9565,3.9572,3.9566,3.9562,3.9561,3.9559,3.9563,3.9553,3.9538,3.9536,3.9558,3.9558,3.9558,0,3.9654,3.9641,3.9631,3.9627,3.9619,3.9613,3.9609,3.9602,3.9596,3.9588,3.9584,3.9574,3.9568,3.956,3.9555,3.9559,3.9539,3.9543,3.9536,3.9536,3.9531,3.9531,3.9514,3.9529,3.9529,3.9529,3.9529,0,3.9641,3.9632,3.9627,3.9621,3.9611,3.9608,3.9597,3.9593,3.9586,3.9578,3.9577,3.9569,3.9563,3.9554,3.9549,3.9537,3.9534,3.9531,3.9529,3.953,3.9531,3.9526,3.9526,3.9528,3.9528,3.9528,3.9529,0,3.9629,3.9626,3.9615,3.9608,3.9606,3.9598,3.9592,3.9585,3.9581,3.957,3.9568,3.9561,3.955,3.9545,3.9531,3.9528,3.9513,3.9513,3.9516,3.9516,3.9508,3.9508,3.9486,3.9483,3.9501,3.9501,3.9501,0,3.9621,3.9614,3.9606,3.9602,3.9598,3.9589,3.9584,3.9581,3.9575,3.9565,3.9559,3.9549,3.954,3.9523,3.9516,3.9505,3.9504,3.9497,3.9502,3.9503,3.9502,3.9502,3.9501,3.9495,3.9495,3.9495,3.9495,0,3.9605,3.9604,3.9597,3.9589,3.9583,3.9576,3.957,3.9565,3.9561,3.9554,3.9544,3.9537,3.9523,3.9512,3.9501,3.9495,3.9494,3.9494,3.9491,3.9491,3.9493,3.9491,3.9513,3.9494,3.9494,3.9494,3.9494,3.9494,3.9594,3.9588,3.9582,3.9574,3.9569,3.9563,3.9556,3.9551,3.9543,3.9533,3.9531,3.952,3.9511,3.9496,3.949,3.948,3.9482,3.9478,3.9477,3.9476,3.9475,3.9496,3.9478,3.9478,3.9478,3.9478,3.9478,0,3.9578,3.9574,3.9567,3.9558,3.9552,3.9552,3.9545,3.9539,3.9529,3.9522,3.9514,3.9502,3.9491,3.9484,3.9473,3.9466,3.9465,3.9463,3.9463,3.9461,3.9475,3.9478,3.9464,3.9464,3.9464,3.9464,3.9464,3.9464,3.9569,3.9558,3.9557,3.9543,3.9539,3.9529,3.9525,3.9518,3.9513,3.9499,3.9491,3.9487,3.9479,3.9468,3.9457,3.9455,3.9451,3.9449,3.9446,3.9459,3.9461,3.9462,3.9465,3.9448,3.9448,3.9433,3.9433,3.9433]}]]